Weather Roundup
Issued by NWS Corpus Christi, TX

Home | Current Version | Previous Version | Text Only | Print | Product List | Glossary Off
Versions: 1 2 3 4 5 6 7 8 9 10 11 12 13 14 15 16 17 18 19 20 21 22 23 24 25 26 27 28 29 30 31 32 33 34 35 36 37 38 39 40 41 42 43 44 45 46 47 48 49 50

000
ASUS44 KCRP 041110
HRRCRP

SOUTH TEXAS REGIONAL WEATHER ROUNDUP
NATIONAL WEATHER SERVICE CORPUS CHRISTI TX
500 AM CST WED MAR 04 2015


TXZ229>244-041200-
...CORPUS CHRISTI AREA OBSERVATIONS...

CITY           SKY/WX    TMP DP  RH WIND       PRES   REMARKS
CORPUS CHRISTI CLOUDY    68  67  96 S9        29.80R FOG
NAS CORPUS CHR CLOUDY    66  66 100 S9        29.80R FOG
ROCKPORT       CLOUDY    68  66  93 S6        29.81R FOG
KINGSVILLE NAS CLOUDY    68  68 100 SE5       29.80R
ALICE          CLOUDY    68  66  93 SE7       29.78F
FALFURRIAS     CLOUDY    69  66  91 CALM      29.78S
$$

...VICTORIA AREA OBSERVATIONS...

CITY           SKY/WX    TMP DP  RH WIND       PRES   REMARKS
VICTORIA       CLOUDY    69  69 100 S12       29.82S FOG
BEEVILLE       CLOUDY    67  67 100 S12       29.81R
PLEASANTON     CLOUDY    64  63  97 CALM      29.81S FOG
SAN ANTONIO    CLOUDY    64  62  93 S7        29.81F FOG
$$

...LAREDO AREA OBSERVATIONS...

CITY           SKY/WX    TMP DP  RH WIND       PRES   REMARKS
LAREDO         LGT RAIN  61  61 100 CALM      29.79S FOG
COTULLA        CLOUDY    62  60  93 E6        29.78F FOG
DEL RIO        CLOUDY    57  53  86 NE5       29.79F
MCALLEN        CLOUDY    71  67  87 S14       29.76S
HEBBRONVILLE   CLOUDY   N/A N/A N/A SE8       29.78F
$$

...OTHER TEXAS OBSERVATIONS...

CITY           SKY/WX    TMP DP  RH WIND       PRES   REMARKS
BROWNSVILLE    CLOUDY    69  68  96 SE15      29.77F
HOUSTON        CLOUDY    70  68  93 S7        29.85R
COL. STATION   CLOUDY    66  65  96 CALM      29.84R FOG
AUSTIN         FOG       58  58 100 CALM      29.83S VSB 1/4
WACO           FOG       54  53  97 CALM      29.84S VSB 1/4
FORT WORTH     DRZL/FOG  50  50 100 N7        29.87R VSB 1/4
WICHITA FALLS  LGT RAIN  42  39  89 NE14      29.92R FOG
LUBBOCK        CLOUDY    46  44  93 NE15      29.83R FOG
EL PASO        LGT RAIN  53  34  48 S13       29.84F
$$

...MARINE OBSERVATIONS...

STATION/POSITION TIME  SKY/WX   TEMP    WIND        PRES    VSBY  WAVE   SWELL
                                AIR SEA DIR/SP/G                  HT/PER HT/PER
                 (UTC)          (F)     (DEG/KT/KT) (MB)    (MI)  (FT/S) (FT/S)
PORT ARANSAS     1000            64 58  130/ 13/ 13 1008.9F
BUOY 90 E PORT A 1100            71 69  150/ 14/ 17 1010.3F         5/ 6
BUOY 45 SE BAFFI 1100            69 66  160/ 12/ 14 1008.6F         4/ 6   2/ 9
BUOY 200 E PT IS 1100            71 71  150/ 14/ 17 1011.5F         3/ 5
BUOY 15 E GALVES 1100            64 60  130/  4/  4 1011.2F         3/ 5   3/ 5
$$


USA.gov is the U.S. government's official web portal to all federal, state and local government web resources and services.